Regional Weather Roundup
Issued by NWS

Home | Current Version | Previous Version | Graphics & Text | Print | Product List | Glossary On
Versions: 1 2 3 4 5 6 7 8 9 10 11 12 13 14 15 16 17 18 19 20 21 22 23 24 25 26 27 28 29 30 31 32 33 34 35 36 37 38 39 40 41 42 43 44 45 46 47 48 49 50
000
ASUS45 KSLC 191110
RWRUT

UTAH REGIONAL WEATHER ROUNDUP
NATIONAL WEATHER SERVICE SALT LAKE CITY UT
400 AM MST FRI DEC 19 2014

UTZ001>011-023>025-191200-

NORTHERN UTAH

CITY           SKY/WX    TMP DP  RH WIND       PRES   REMARKS
BRIGHAM CITY   CLOUDY    33  29  85 CALM      30.20R
HILL AFB       CLOUDY    33  24  71 SE9       30.18R WCI  25
LOGAN          CLOUDY    30  26  85 W5        30.18S WCI  25
OGDEN          CLOUDY    32  26  78 S8        30.18S WCI  25
PROVO AIRPORT  PTCLDY    25  21  86 N3        30.22R
SALT LAKE CITY CLOUDY    33  28  81 SE10      30.18S WCI  25
VERNAL         CLOUDY    27  23  85 CALM      30.23S
WENDOVER       PTCLDY    25  21  86 CALM      30.17S
HEBER CITY     CLOUDY    25  21  86 SE5       30.20S WCI  19
WEST JORDAN    CLOUDY    30  30 100 SW8       30.19S WCI  23

$$

UTZ012>022-026-027-191200-

SOUTHERN/CENTRAL UTAH

CITY           SKY/WX    TMP DP  RH WIND       PRES   REMARKS
BLANDING       CLEAR     26  23  86 CALM      30.26S
BRYCE CANYON   PTCLDY     8   5  87 W6        30.20S WCI  -2
CEDAR CITY     CLEAR     22  18  85 NW3       30.20R
DELTA          PTCLDY    26  24  93 CALM      30.21R
MILFORD        CLEAR     26  21  81 S7        30.20R WCI  18
MOAB/CYNLANDS  CLOUDY    31  31 100 CALM      30.20R
PRICE          CLEAR     21  16  81 NE6       30.18S WCI  13
ST GEORGE      PTSUNNY   36  28  75 CALM      30.27R
KANAB            N/A     28  28 100 N3        30.26S

$$

REGIONAL REPORTS     COLORADO/ARIZONA

CITY           SKY/WX    TMP DP  RH WIND       PRES   REMARKS
CRAIG, CO      CLOUDY    23  18  81 S6        30.20S HAZE    WCI  16
GRAND JUNCTION CLOUDY    30  28  92 NE6       30.20S WCI  24
RIFLE          CLOUDY    29  25  85 S5        30.19S WCI  24
MONTROSE       CLOUDY    31  30  96 CALM      30.20S
CORTEZ         CLEAR     20  17  88 NE7       30.19S WCI  11
PAGE, AZ       CLEAR     33  28  81 CALM      30.21S
GRAND CANYON   MOCLDY    19  16  88 CALM      30.21S FOG
KINGMAN        CLEAR     31  29  92 CALM      30.21S
FLAGSTAFF      PTCLDY    13   8  81 CALM      30.19S

$$

REGIONAL REPORTS    NEVADA/IDAHO/WYOMING

CITY           SKY/WX    TMP DP  RH WIND       PRES   REMARKS
LAS VEGAS, NV  PTCLDY    42  35  76 S7        30.19S
ELY            CLEAR     17  14  88 S7        30.19S WCI   8
ELKO           MOCLDY    24  22  91 CALM      30.13S
POCATELLO, ID  CLOUDY    37  28  70 S7        30.12F WCI  32
BURLEY         CLOUDY    37  26  64 S10       30.09F WCI  30
EVANSTON, WY   PTCLDY    20  17  88 S6        30.15S WCI  12
ROCK SPRINGS   PTCLDY    20  16  84 SW12      30.13S WCI   8
KEMMERER       MOCLDY    21  19  93 SW7       30.13F WCI  13

$$


USA.gov is the U.S. government's official web portal to all federal, state and local government web resources and services.